Regional Weather Roundup
Issued by NWS Charleston, SC

Current Version | Previous Version | Text Only | Print | Product List | Glossary Off
Versions: 1 2 3 4 5 6 7 8 9 10 11 12 13 14 15 16 17 18 19 20 21 22 23 24 25 26 27 28 29 30 31 32 33 34 35 36 37 38 39 40 41 42 43 44 45 46 47 48 49 50

000
ASUS42 KCHS 241727
RWRCHS

REGIONAL WEATHER ROUNDUP
NATIONAL WEATHER SERVICE CHARLESTON SC
100 PM EDT WED MAY 24 2017

NOTE: "FAIR" INDICATES FEW OR NO CLOUDS BELOW 12,000 FEET WITH NO
SIGNIFICANT WEATHER AND/OR OBSTRUCTIONS TO VISIBILITY.

NOT ALL STATIONS ARE QUALITY CONTROLLED. USE DATA WITH CAUTION...
ESPECIALLY DEWPOINT OBSERVATIONS.

SCZ027-030-031-034>040-042>050-241800-
...SOUTHEAST SOUTH CAROLINA...

CITY           SKY/WX    TMP DP  RH WIND       PRES   REMARKS
N CHARLESTON   CLOUDY    80  71  74 S15       29.66F
WATERFRONT PRK   N/A     78  74  87 SW9       29.66S
JOHNS ISLAND   FAIR      79  73  83 S15G22    29.67F
PINOPOLIS        N/A     81  72  74 S7        29.60S
MONCKS CORNER  PTSUNNY   79  70  73 S13       29.65S
SUMMERVILLE    PTSUNNY   79  72  78 S6        29.66F
BEAUFORT MCAS  TSTM      73  69  87 S15G38    29.68R FOG
BEAUFORT ARPT  TSTM      73  72  94 SW15G25   29.68R
HILTON HEAD IS TSTM      73  72  94 S17G29    29.69  VSB 1
WALTERBORO     PTSUNNY   79  70  73 S10       29.65F
ALLENDALE      FAIR      79  72  78 S10       29.61F

...SOUTHERN MIDLANDS AND PEE DEE...

CITY           SKY/WX    TMP DP  RH WIND       PRES   REMARKS
GEORGETOWN     PTSUNNY   79  72  78 S13G20    29.68S
KINGSTREE      PTSUNNY   79  68  69 S10       29.63F
ORANGEBURG     FAIR      77  70  79 S13       29.62F
BARNWELL       PTSUNNY   77  73  88 SE9       29.61F
AIKEN          PTSUNNY   73  68  83 S10       29.62F
MANNING        FAIR      79  72  78 SW24      29.63F
COLUMBIA       PTSUNNY   79  69  71 S9        29.59F
SUMTER         CLOUDY    77  70  78 S6        29.60F
FLORENCE       PTSUNNY   77  70  79 SW10      29.65F
MYRTLE BEACH   PTSUNNY   79  73  83 SW18      29.67F
N MYRTLE BEACH FAIR      79  73  82 S15       29.67F

$$

GAZ063-065-086>088-099>101-113>116-118-119-134>141-150-241800-
...SOUTHEAST GEORGIA...

CITY           SKY/WX    TMP DP  RH WIND       PRES   REMARKS
SAVANNAH ARPT  RAIN      77  70  79 S13       29.68R
HUNTER AAF     TSTM      72  72 100 S16G23    29.68R FOG
FORT STEWART   HVY RAIN  73  72  94 S12       29.66R FOG
STATESBORO     LGT RAIN  76  76 100 S15G22    29.64S
SYLVANIA       PTSUNNY   76  74  91 S8        29.63F
CLAXTON        RAIN     N/A N/A N/A SE6       29.64F

...CSRA...CENTRAL AND FAR SOUTHEAST GEORGIA...

CITY           SKY/WX    TMP DP  RH WIND       PRES   REMARKS
THOMSON        CLOUDY    71  69  93 SW8       29.60F FOG
AUGUSTA-BUSH   FAIR      78  70  76 S13       29.59F
AUGUSTA-DANIEL FAIR      77  67  71 S9        29.59F
SWAINSBORO     PTSUNNY   75  73  94 S12       29.62R
VIDALIA        CLOUDY    75  72  88 S14G23    29.64R
EASTMAN        CLOUDY    77  64  63 S9G16     29.61F
HAZLEHURST     PTSUNNY   74  71  91 S13G22    29.62R
ALMA           FAIR      71  68  90 S13       29.66R
WAYCROSS       RAIN      73  73 100 S8        29.67R
JESUP          HVY RAIN  70  64  83 S8G31     29.70F
BAXLEY         LGT RAIN  72  72 100 S10G21    29.65S
BRUNSWICK      RAIN      72  72 100 S7        29.72F
SAINT SIMONS   HVY RAIN  72  71  97 S8        29.72F FOG

$$

SCZ027-028-034-036>038-045-046-048>050-GAZ119-141-241800-
...LAKE AND SUPPLEMENTAL COASTAL OBSERVATIONS...

STATION/POSITION TIME  TEMP    WIND        PRES    WAVE   SWELL
                       AIR SEA DIR/SP/G            HT/PER HT/PER/DIR
                 (UTC) (F)     (DEG/KT/KT) (MB)    (FT/S) (FT/S/D)
WINYAH BAY       1645   80     210/ 13     1004.0F
LAKE MURRAY      1720   76     170/ 12/ 14 1001.4
ACE BASIN NERRS  1645   79     180/  2     1005.0S
FORT PULASKI     1700   75     210/ 16/ 28 1005.9
SAPELO ISLAND    1700   70     170/ 14     1007.0

$$

ANZ835-935-AMZ111-154-330-350-352-354-370-450-454-472-241800-
...C-MAN AND BUOY OBSERVATIONS...

STATION/POSITION TIME  TEMP    WIND        PRES    WAVE   SWELL
                       AIR SEA DIR/SP/G            HT/PER HT/PER/DIR
                 (UTC) (F)     (DEG/KT/KT) (MB)    (FT/S) (FT/S/D)
BUOY 41004       1710   77 77  200/ 17/ 21 1005.5
BUOY 41008       1650   75 78  190/ 23/ 27 1006.4R   4/ 6
FOLLY BEACH CMAN 1700   77     200/ 19/ 22 1005.5F
CAPERS NEARSHORE 1708   80 77  210/ 17/ 23 1004.6F
FRIPP NEARSHORE  1708   78 78  200/ 23/ 31 1004.0F


STATION/POSITION TIME  TEMP    WIND        PRES    WAVE   SWELL
                       AIR SEA DIR/SP/G            HT/PER HT/PER/DIR
                 (UTC) (F)     (DEG/KT/KT) (MB)    (FT/S) (FT/S/D)
5E ST. MARYS GA  1700      79                N/A     3/ 5
FRYING PAN BUOY  1710   77 77  220/ 16/ 21 1005.8
BUOY 41025       1650   73 75  240/  8/ 10 1006.5R   5/ 8   5/190/ 8
CAPE LOOKOUT NC  1700   73     160/  6/  6 1005.9F
BUOY 41002       1650   77 76  190/ 14/ 17 1010.4S   8/ 8   7/200/ 8
BUOY 41010       1710   80 79  190/ 14/ 17 1009.8
ST AUGUSTINE FL  1700   81 77  200/  9/ 13 1006.3F


$$



USA.gov is the U.S. government's official web portal to all federal, state and local government web resources and services.